Hayden, CO

6:27 PM MDT on March 28, 2017 (GMT -0600)
Yampa Valley

Weather History for KHDN - October, 2012

Change the Weather History Date:

Friday, October 5, 2012

  Actual Average Record
Temperature  
Mean Temperature 42 °F -  
Max Temperature 50 °F 66 °F 80 °F (1960)
Min Temperature 32 °F 32 °F 17 °F (1991)
Degree Days  
Heating Degree Days 24    
Moisture  
Dew Point 16 °F    
Average Humidity 38    
Maximum Humidity 56    
Minimum Humidity 22    
Precipitation  
Precipitation 0.00 in - - ()
Sea Level Pressure  
Sea Level Pressure 30.12 in    
Wind  
Wind Speed 7 mph (NNW)    
Max Wind Speed 16 mph    
Max Gust Speed 24 mph    
Visibility 10 miles    
Events      
Averages and records for this station are not official NWS values.
T = Trace of Precipitation, MM = Missing Value Source: NWS Daily Summary

Daily Weather History Graph

Daily Weather History Graph

Search for Another Location

Airport or City:

Trip Planner

Search our weather history database for the weather conditions in past years. The results will help you decide how hot, cold, wet, or windy it might be!

Date:

Astronomy

Oct. 05, 2012 Rise Set
Actual Time 7:09 AM MDT 6:43 PM MDT
Civil Twilight 6:42 AM MDT 7:10 PM MDT
Nautical Twilight 6:11 AM MDT 7:42 PM MDT
Astronomical Twilight 5:39 AM MDT 8:14 PM MDT
Moon 10:08 PM MDT (10/5) 12:20 PM MDT (10/5)
Length of Visible Light 12h 28m
Length of Day
11h 33m
Waning Gibbous, 73% of the Moon is Illuminated
Oct 5
Waning Gibbous
Oct 8
Last Quarter
Oct 15
New
Oct 21
First Quarter
Oct 29
Full

Hourly Weather History & Observations

Time (MDT) Temp. Windchill Dew Point Humidity Pressure Visibility Wind Dir Wind Speed Gust Speed Precip Events Conditions
12:15 AM 42.8 °F 37.0 °F 17.6 °F 36% 30.04 in 10.0 mi SE 10.4 mph - N/A   Clear
12:35 AM 41.0 °F 37.1 °F 17.6 °F 39% 30.04 in 10.0 mi SE 5.8 mph - N/A   Clear
12:55 AM 37.4 °F 32.8 °F 17.6 °F 45% 30.03 in 10.0 mi South 5.8 mph - N/A   Mostly Cloudy
1:15 AM 41.0 °F 35.2 °F 19.4 °F 42% 30.04 in 10.0 mi West 9.2 mph - N/A   Mostly Cloudy
1:35 AM 39.2 °F 33.6 °F 19.4 °F 45% 30.06 in 10.0 mi NW 8.1 mph - N/A   Mostly Cloudy
1:55 AM 39.2 °F 35.0 °F 19.4 °F 45% 30.06 in 10.0 mi NE 5.8 mph - N/A   Mostly Cloudy
2:15 AM 41.0 °F 38.0 °F 19.4 °F 42% 30.06 in 10.0 mi ENE 4.6 mph - N/A   Mostly Cloudy
2:35 AM 41.0 °F 35.8 °F 19.4 °F 42% 30.05 in 10.0 mi South 8.1 mph - N/A   Overcast
2:55 AM 42.8 °F 38.6 °F 19.4 °F 39% 30.05 in 10.0 mi SSW 6.9 mph - N/A   Overcast
3:15 AM 39.2 °F 35.0 °F 21.2 °F 49% 30.07 in 10.0 mi WNW 5.8 mph - N/A   Mostly Cloudy
3:35 AM 42.8 °F - 19.4 °F 39% 30.05 in 10.0 mi Calm Calm - N/A   Scattered Clouds
3:55 AM 41.0 °F 38.0 °F 21.2 °F 45% 30.06 in 10.0 mi North 4.6 mph - N/A   Mostly Cloudy
4:15 AM 42.8 °F 38.6 °F 19.4 °F 39% 30.06 in 10.0 mi NNW 6.9 mph - N/A   Mostly Cloudy
4:35 AM 39.2 °F - 21.2 °F 49% 30.07 in 10.0 mi Calm Calm - N/A   Scattered Clouds
4:55 AM 39.2 °F 37.0 °F 21.2 °F 49% 30.08 in 10.0 mi NW 3.5 mph - N/A   Partly Cloudy
5:15 AM 39.2 °F 34.2 °F 19.4 °F 45% 30.08 in 10.0 mi WNW 6.9 mph - N/A   Clear
5:55 AM 35.6 °F 32.8 °F 19.4 °F 52% 30.11 in 10.0 mi NW 3.5 mph - N/A   Clear
6:15 AM 35.6 °F 31.7 °F 17.6 °F 48% 30.12 in 10.0 mi NW 4.6 mph - N/A   Clear
6:35 AM 33.8 °F 30.8 °F 17.6 °F 52% 30.13 in 10.0 mi WNW 3.5 mph - N/A   Clear
7:15 AM 33.8 °F 29.6 °F 17.6 °F 52% 30.15 in 10.0 mi NNW 4.6 mph - N/A   Partly Cloudy
7:35 AM 33.8 °F 27.0 °F 19.4 °F 56% 30.15 in 10.0 mi North 8.1 mph - N/A   Mostly Cloudy
7:55 AM 33.8 °F - 19.4 °F 56% 30.16 in 10.0 mi Calm Calm - N/A   Partly Cloudy
8:15 AM 33.8 °F 30.8 °F 19.4 °F 56% 30.17 in 10.0 mi NW 3.5 mph - N/A   Clear
8:35 AM 35.6 °F - 19.4 °F 52% 30.18 in 10.0 mi Calm Calm - N/A   Clear
8:55 AM 35.6 °F 30.7 °F 19.4 °F 52% 30.19 in 10.0 mi NNW 5.8 mph - N/A   Clear
9:15 AM 37.4 °F 32.8 °F 21.2 °F 52% 30.19 in 10.0 mi NNW 5.8 mph - N/A   Clear
9:35 AM 39.2 °F 34.2 °F 21.2 °F 49% 30.19 in 10.0 mi NNW 6.9 mph - N/A   Clear
9:55 AM 41.0 °F 35.2 °F 21.2 °F 45% 30.19 in 10.0 mi NW 9.2 mph - N/A   Clear
10:35 AM 42.8 °F 37.0 °F 21.2 °F 42% 30.19 in 10.0 mi NW 10.4 mph - N/A   Clear
11:15 AM 44.6 °F 38.8 °F 19.4 °F 37% 30.19 in 10.0 mi NW 11.5 mph - N/A   Clear
11:35 AM 46.4 °F 41.1 °F 17.6 °F 32% 30.19 in 10.0 mi NW 11.5 mph 16.1 mph N/A   Clear
11:55 AM 46.4 °F 41.9 °F 17.6 °F 32% 30.19 in 10.0 mi NNW 9.2 mph - N/A   Clear
12:35 PM 46.4 °F 40.4 °F 17.6 °F 32% 30.19 in 10.0 mi NW 13.8 mph - N/A   Clear
12:55 PM 46.4 °F 40.4 °F 17.6 °F 32% 30.18 in 10.0 mi NW 13.8 mph 18.4 mph N/A   Clear
1:15 PM 48.2 °F - 17.6 °F 30% 30.18 in 10.0 mi NNW 10.4 mph 21.9 mph N/A   Clear
1:35 PM 48.2 °F - 17.6 °F 30% 30.16 in 10.0 mi NW 16.1 mph - N/A   Clear
1:55 PM 50.0 °F - 14.0 °F 24% 30.16 in 10.0 mi NNW 15.0 mph 24.2 mph N/A   Clear
2:15 PM 50.0 °F - 15.8 °F 26% 30.15 in 10.0 mi NW 16.1 mph 20.7 mph N/A   Clear
2:35 PM 50.0 °F - 12.2 °F 22% 30.15 in 10.0 mi NNW 16.1 mph - N/A   Clear
2:55 PM 50.0 °F - 12.2 °F 22% 30.15 in 10.0 mi North 11.5 mph - N/A   Clear
3:15 PM 50.0 °F - 12.2 °F 22% 30.14 in 10.0 mi North 13.8 mph - N/A   Clear
3:35 PM 50.0 °F - 12.2 °F 22% 30.14 in 10.0 mi North 16.1 mph - N/A   Clear
3:55 PM 50.0 °F - 12.2 °F 22% 30.13 in 10.0 mi NNE 13.8 mph - N/A   Clear
4:15 PM 50.0 °F - 12.2 °F 22% 30.12 in 10.0 mi North 12.7 mph - N/A   Clear
4:35 PM 50.0 °F - 12.2 °F 22% 30.12 in 10.0 mi NNE 11.5 mph - N/A   Clear
4:55 PM 50.0 °F - 12.2 °F 22% 30.11 in 10.0 mi NNE 10.4 mph - N/A   Clear
5:15 PM 50.0 °F - 12.2 °F 22% 30.11 in 10.0 mi NNE 10.4 mph - N/A   Clear
5:35 PM 50.0 °F - 12.2 °F 22% 30.11 in 10.0 mi NNE 8.1 mph - N/A   Clear
6:15 PM 48.2 °F - 12.2 °F 24% 30.10 in 10.0 mi NNE 3.5 mph - N/A   Clear
6:35 PM 46.4 °F - 12.2 °F 25% 30.10 in 10.0 mi Calm Calm - N/A   Clear
6:55 PM 46.4 °F 45.2 °F 10.4 °F 23% 30.10 in 10.0 mi NNE 3.5 mph - N/A   Clear
7:35 PM 44.6 °F 42.2 °F 10.4 °F 25% 30.10 in 10.0 mi SW 4.6 mph - N/A   Clear
7:55 PM 42.8 °F 41.1 °F 10.4 °F 27% 30.09 in 10.0 mi SW 3.5 mph - N/A   Clear
8:15 PM 37.4 °F 34.9 °F 12.2 °F 36% 30.10 in 10.0 mi West 3.5 mph - N/A   Clear
8:35 PM 37.4 °F 34.9 °F 12.2 °F 36% 30.10 in 10.0 mi WNW 3.5 mph - N/A   Clear
8:55 PM 35.6 °F 32.8 °F 12.2 °F 38% 30.09 in 10.0 mi WNW 3.5 mph - N/A   Clear
9:35 PM 33.8 °F 29.6 °F 12.2 °F 41% 30.08 in 10.0 mi ESE 4.6 mph - N/A   Clear
9:55 PM 35.6 °F 29.9 °F 12.2 °F 38% 30.09 in 10.0 mi SE 6.9 mph - N/A   Clear
10:15 PM 33.8 °F 30.8 °F 12.2 °F 41% 30.09 in 10.0 mi SSE 3.5 mph - N/A   Clear
10:35 PM 35.6 °F 31.7 °F 12.2 °F 38% 30.09 in 10.0 mi SSE 4.6 mph - N/A   Clear
10:55 PM 33.8 °F - 12.2 °F 41% 30.09 in 10.0 mi Calm Calm - N/A   Clear
11:15 PM 33.8 °F - 12.2 °F 41% 30.10 in 10.0 mi Calm Calm - N/A   Clear
11:35 PM 33.8 °F - 12.2 °F 41% 30.10 in 10.0 mi Calm Calm - N/A   Clear
11:55 PM 32.0 °F 28.7 °F 12.2 °F 44% 30.11 in 10.0 mi ENE 3.5 mph - N/A   Clear